QPF
0.00 0.00 0.00 0.00 0.00 0.00 0.00 0.00 0.00 0.00 0.00 0.00 0.00 0.00 0.00 0.00 0.00 0.00 0.00 0.00 0.00 0.00 0.00 0.00 0.00 0.00 0.00 0.00 0.00 0.00 0.00 0.00 0.00 0.00 0.00 0.00 0.00 0.00 0.00 0.00 0.00 0.00 0.00 0.00 0.00 0.00 0.00 0.00 0.00
0.00 0.00 0.00 0.00 0.00 0.00 0.00 0.00 0.00 0.00 0.00 0.00 0.00 0.00 0.00 0.00 0.00 0.00 0.00 0.00 0.00 0.00 0.00 0.00 0.00 0.00 0.00 0.00 0.00 0.00 0.00 0.00 0.00 0.00 0.00 0.00 0.00 0.00 0.00 0.00 0.00 0.00 0.00 0.00 0.00 0.00 0.00 0.00 0.00
0.00 0.00 0.00 0.00 0.00 0.00 0.00 0.00 0.00 0.00 0.00 0.00 0.00 0.00 0.00 0.00 0.00 0.00 0.00 0.00 0.00 0.00 0.00 0.00 0.00 0.00 0.00 0.00 0.00 0.00 0.00 0.00 0.00 0.00 0.00 0.00 0.00 0.00 0.00 0.00 0.00 0.00 0.00 0.00 0.00 0.00 0.00 0.00 0.00
0.00 0.00 0.00 0.00 0.00 0.00 0.00 0.00 0.00 0.00 0.00 0.00 0.00 0.00 0.00 0.00 0.00 0.00 0.00 0.00 0.00 0.00 0.00 0.00 0.00 0.00 0.00 0.00 0.00 0.00 0.00 0.00 0.00 0.00 0.00 0.00 0.00 0.00 0.00 0.00 0.00 0.00 0.00 0.00 0.00 0.00 0.00 0.00 0.00
0.00 0.00 0.00 0.00 0.00 0.00 0.00 0.00 0.00 0.00 0.00 0.00 0.00 0.00 0.00 0.00 0.00 0.00 0.00 0.00 0.00 0.00 0.00 0.00 0.00 0.00 0.00 0.00 0.00 0.00 0.00 0.00 0.00 0.00 0.00 0.00 0.00 0.00 0.00 0.00 0.00 0.00 0.00 0.00 0.00 0.00 0.00 0.00 0.00
0.00 0.00 0.00 0.00 0.00 0.00 0.00 0.00 0.00 0.00 0.00 0.00 0.00 0.00 0.00 0.00 0.00 0.00 0.00 0.00 0.00 0.00 0.00 0.00 0.00 0.00 0.00 0.00 0.00 0.00 0.00 0.00 0.00 0.00 0.00 0.00 0.00 0.00 0.00 0.00 0.00 0.00 0.00 0.00 0.00 0.00 0.00 0.00 0.00
0.00 0.00 0.00 0.00 0.00 0.00 0.00 0.00 0.00 0.00 0.00 0.00 0.00 0.00 0.00 0.00 0.00 0.00 0.00 0.00 0.00 0.00 0.00 0.00 0.00 0.00 0.00 0.00 0.00 0.00 0.00 0.00 0.00 0.00 0.00 0.00 0.00 0.00 0.00 0.00 0.00 0.00 0.00 0.00 0.00 0.00 0.00 0.00 0.00
0.00 0.00 0.00 0.00 0.00 0.00 0.00 0.00 0.00 0.00 0.00 0.00 0.00 0.00 0.00 0.00 0.00 0.00 0.00 0.00 0.00 0.00 0.00 0.00 0.00 0.00 0.00 0.00 0.00 0.00 0.00 0.00 0.00 0.00 0.00 0.00 0.00 0.00 0.00 0.00 0.00 0.00 0.00 0.00 0.00 0.00 0.00 0.00 0.00
0.00 0.00 0.00 0.00 0.00 0.00 0.00 0.00 0.00 0.00 0.00 0.00 0.00 0.00 0.00 0.00 0.00 0.00 0.00 0.00 0.00 0.00 0.00 0.00 0.00 0.00 0.00 0.00 0.00 0.00 0.00 0.00 0.00 0.00 0.00 0.00 0.00 0.00 0.00 0.00 0.00 0.00 0.00 0.00 0.00 0.00 0.00 0.00 0.00
0.00 0.00 0.00 0.00 0.00 0.00 0.00 0.00 0.00 0.00 0.00 0.00 0.00 0.00 0.00 0.00 0.00 0.00 0.00 0.00 0.00 0.00 0.00 0.00 0.00 0.00 0.00 0.00 0.00 0.00 0.00 0.00 0.00 0.00 0.00 0.00 0.00 0.00 0.00 0.00 0.00 0.00 0.00 0.00 0.00 0.00 0.00 0.00 0.00
0.00 0.00 0.00 0.00 0.00 0.00 0.00 0.00 0.00 0.00 0.00 0.00 0.00 0.00 0.00 0.00 0.00 0.00 0.00 0.00 0.00 0.00 0.00 0.00 0.00 0.00 0.00 0.00 0.00 0.00 0.00 0.00 0.00 0.00 0.00 0.00 0.00 0.00 0.00 0.00 0.00 0.00 0.00 0.00 0.00 0.00 0.00 0.00 0.00
0.00 0.00 0.00 0.00 0.00 0.00 0.00 0.00 0.00 0.00 0.00 0.00 0.00 0.00 0.00 0.00 0.00 0.00 0.00 0.00 0.00 0.00 0.00 0.00 0.00 0.00 0.00 0.00 0.00 0.00 0.00 0.00 0.00 0.00 0.00 0.00 0.00 0.00 0.00 0.00 0.00 0.00 0.00 0.00 0.00 0.00 0.00 0.00 0.00
0.00 0.00 0.00 0.00 0.00 0.00 0.00 0.00 0.00 0.00 0.00 0.00 0.00 0.00 0.00 0.00 0.00 0.00 0.00 0.00 0.00 0.00 0.00 0.00 0.00 0.00 0.00 0.00 0.00 0.00 0.00 0.00 0.00 0.00 0.00 0.00 0.00 0.00 0.00 0.00 0.00 0.00 0.00 0.00 0.00 0.00 0.00 0.00 0.00
0.00 0.00 0.00 0.00 0.00 0.00 0.00 0.00 0.00 0.00 0.00 0.00 0.00 0.00 0.00 0.00 0.00 0.00 0.00 0.00 0.00 0.00 0.00 0.00 0.00 0.00 0.00 0.00 0.00 0.00 0.00 0.00 0.00 0.00 0.00 0.00 0.00 0.00 0.00 0.00 0.00 0.00 0.00 0.00 0.00 0.00 0.00 0.00 0.00
0.00 0.00 0.00 0.00 0.00 0.00 0.00 0.00 0.00 0.00 0.00 0.00 0.00 0.00 0.00 0.00 0.00 0.00 0.01 0.01 0.00 0.00 0.00 0.00 0.00 0.00 0.00 0.00 0.00 0.00 0.00 0.00 0.00 0.00 0.00 0.00 0.00 0.00 0.00 0.00 0.00 0.00 0.00 0.00 0.00 0.00 0.00 0.00 0.00
0.00 0.00 0.00 0.00 0.00 0.00 0.00 0.00 0.00 0.00 0.00 0.00 0.00 0.00 0.00 0.00 0.00 0.00 0.01 0.04 0.03 0.03 0.01 0.01 0.01 0.00 0.00 0.00 0.00 0.00 0.00 0.00 0.00 0.00 0.00 0.00 0.00 0.00 0.00 0.00 0.00 0.00 0.00 0.00 0.00 0.00 0.00 0.00 0.00
0.00 0.00 0.00 0.00 0.00 0.00 0.00 0.00 0.00 0.00 0.00 0.00 0.00 0.00 0.00 0.00 0.00 0.00 0.00 0.03 0.08 0.05 0.01 0.06 0.03 0.02 0.01 0.00 0.00 0.00 0.00 0.00 0.00 0.00 0.00 0.00 0.00 0.00 0.00 0.00 0.00 0.00 0.00 0.00 0.00 0.00 0.00 0.00 0.00
0.00 0.00 0.00 0.00 0.00 0.00 0.00 0.00 0.00 0.00 0.00 0.00 0.00 0.00 0.00 0.00 0.01 0.01 0.00 0.00 0.03 0.07 0.03 0.05 0.04 0.03 0.04 0.04 0.01 0.00 0.00 0.00 0.00 0.00 0.00 0.00 0.00 0.00 0.00 0.00 0.00 0.00 0.00 0.00 0.00 0.00 0.00 0.00 0.00
0.00 0.00 0.00 0.00 0.00 0.00 0.00 0.00 0.00 0.00 0.00 0.00 0.00 0.00 0.00 0.00 0.00 0.00 0.01 0.01 0.01 0.03 0.02 0.02 0.02 0.01 0.02 0.01 0.01 0.01 0.00 0.00 0.00 0.00 0.00 0.00 0.00 0.00 0.00 0.00 0.00 0.00 0.00 0.00 0.00 0.00 0.00 0.00 0.00
0.00 0.00 0.00 0.00 0.00 0.00 0.00 0.00 0.00 0.00 0.00 0.00 0.00 0.00 0.00 0.00 0.00 0.00 0.00 0.00 0.00 0.00 0.00 0.00 0.00 0.00 0.00 0.00 0.00 0.00 0.00 0.00 0.00 0.00 0.00 0.00 0.00 0.00 0.00 0.00 0.00 0.00 0.00 0.00 0.00 0.00 0.00 0.00 0.00
0.00 0.00 0.00 0.00 0.00 0.00 0.00 0.00 0.00 0.00 0.00 0.00 0.00 0.00 0.00 0.00 0.00 0.00 0.00 0.00 0.00 0.00 0.00 0.00 0.00 0.00 0.00 0.00 0.00 0.00 0.00 0.00 0.00 0.00 0.00 0.00 0.00 0.00 0.00 0.00 0.00 0.00 0.00 0.00 0.00 0.00 0.00 0.00 0.00
0.00 0.00 0.00 0.00 0.00 0.00 0.00 0.00 0.00 0.00 0.00 0.00 0.00 0.00 0.00 0.00 0.00 0.00 0.00 0.00 0.00 0.00 0.00 0.00 0.00 0.00 0.00 0.00 0.00 0.00 0.00 0.00 0.00 0.00 0.00 0.00 0.00 0.00 0.00 0.00 0.00 0.00 0.00 0.00 0.00 0.00 0.00 0.00 0.00
0.00 0.00 0.00 0.00 0.00 0.00 0.00 0.00 0.00 0.00 0.00 0.00 0.00 0.00 0.00 0.00 0.00 0.00 0.00 0.00 0.00 0.00 0.00 0.00 0.00 0.00 0.00 0.00 0.00 0.00 0.00 0.00 0.00 0.00 0.00 0.00 0.00 0.00 0.00 0.00 0.00 0.00 0.00 0.00 0.00 0.00 0.00 0.00 0.00
0.00 0.00 0.00 0.00 0.00 0.00 0.00 0.00 0.00 0.00 0.00 0.00 0.00 0.00 0.00 0.00 0.00 0.00 0.00 0.00 0.00 0.00 0.00 0.00 0.00 0.00 0.00 0.00 0.00 0.00 0.00 0.00 0.00 0.00 0.00 0.00 0.00 0.00 0.00 0.00 0.00 0.00 0.00 0.00 0.00 0.00 0.00 0.00 0.00
0.00 0.00 0.00 0.00 0.00 0.00 0.00 0.00 0.00 0.00 0.00 0.00 0.00 0.00 0.00 0.00 0.00 0.00 0.00 0.00 0.00 0.00 0.00 0.00 0.00 0.00 0.00 0.00 0.00 0.00 0.00 0.00 0.00 0.00 0.00 0.00 0.00 0.00 0.00 0.00 0.00 0.00 0.00 0.00 0.00 0.00 0.00 0.00 0.00
0.00 0.00 0.00 0.00 0.00 0.00 0.00 0.00 0.00 0.00 0.00 0.00 0.00 0.00 0.00 0.00 0.00 0.00 0.00 0.00 0.00 0.00 0.00 0.00 0.00 0.00 0.00 0.00 0.00 0.00 0.00 0.00 0.00 0.00 0.00 0.00 0.00 0.00 0.00 0.00 0.00 0.00 0.00 0.00 0.00 0.00 0.00 0.00 0.00
0.00 0.00 0.00 0.00 0.00 0.00 0.00 0.00 0.00 0.00 0.00 0.00 0.00 0.00 0.00 0.00 0.00 0.00 0.00 0.00 0.00 0.00 0.00 0.00 0.00 0.00 0.00 0.00 0.00 0.00 0.00 0.00 0.00 0.00 0.00 0.00 0.00 0.00 0.00 0.00 0.00 0.00 0.00 0.00 0.00 0.00 0.00 0.00 0.00
0.00 0.00 0.00 0.00 0.00 0.00 0.00 0.00 0.00 0.00 0.00 0.00 0.00 0.00 0.00 0.00 0.00 0.00 0.00 0.00 0.00 0.00 0.00 0.00 0.00 0.00 0.00 0.00 0.00 0.00 0.00 0.00 0.00 0.00 0.00 0.00 0.00 0.00 0.00 0.00 0.00 0.00 0.00 0.00 0.00 0.00 0.00 0.00 0.00
0.00 0.00 0.00 0.01 0.00 0.01 0.00 0.00 0.00 0.00 0.00 0.00 0.00 0.00 0.00 0.00 0.00 0.00 0.00 0.00 0.00 0.00 0.00 0.00 0.00 0.00 0.00 0.00 0.00 0.00 0.00 0.00 0.00 0.00 0.00 0.00 0.00 0.00 0.00 0.00 0.00 0.00 0.00 0.00 0.00 0.00 0.00 0.00 0.00
0.00 0.00 0.00 0.03 0.02 0.02 0.03 0.01 0.02 0.01 0.00 0.00 0.00 0.00 0.00 0.00 0.00 0.00 0.00 0.00 0.00 0.00 0.00 0.00 0.00 0.00 0.00 0.00 0.00 0.00 0.00 0.00 0.00 0.00 0.00 0.00 0.00 0.00 0.00 0.00 0.00 0.00 0.00 0.00 0.00 0.00 0.00 0.00 0.00
MSLP
1011.17 1010.42 1009.95 1008.89 1006.87 1004.17 1003.95 1004.98 1005.58 1005.78 1006.03 1006.89 1007.16 1007.84 1008.55 1009.54 1010.23 1011.83 1013.61 1014.01 1014.04 1014.41 1016.12 1016.95 1017.49 1017.67 1017.80 1018.00 1018.19 1018.36 1018.43 1018.53 1018.62 1018.67 1018.77 1018.81 1018.90 1019.04 1019.14 1019.14 1019.04 1019.08 1019.09 1019.08 1019.08 1019.08 1018.98 1018.93 1018.91
1010.22 1009.99 1009.07 1006.86 1004.81 1003.14 1003.73 1005.25 1005.73 1006.24 1006.85 1007.45 1008.03 1008.46 1009.09 1010.60 1012.03 1013.62 1013.78 1014.41 1014.39 1015.09 1016.13 1016.68 1017.66 1017.88 1018.06 1018.21 1018.42 1018.54 1018.65 1018.79 1018.89 1018.98 1019.09 1019.15 1019.20 1019.33 1019.35 1019.34 1019.33 1019.28 1019.29 1019.24 1019.16 1019.09 1019.07 1019.04 1019.03
1010.20 1009.71 1007.42 1005.47 1004.05 1002.96 1003.17 1005.09 1005.90 1006.80 1007.28 1007.49 1008.19 1008.78 1009.97 1011.72 1012.88 1013.10 1013.58 1014.37 1014.58 1015.60 1016.43 1017.21 1017.86 1018.16 1018.34 1018.50 1018.65 1018.82 1018.86 1018.96 1019.11 1019.26 1019.36 1019.45 1019.51 1019.60 1019.71 1019.64 1019.57 1019.49 1019.39 1019.34 1019.26 1019.15 1019.11 1019.08 1019.03
1009.02 1008.09 1006.91 1005.07 1003.61 1004.09 1004.18 1004.79 1005.74 1006.42 1007.10 1007.77 1008.53 1009.75 1011.73 1012.72 1012.78 1013.60 1014.27 1014.38 1014.86 1015.48 1015.91 1017.80 1018.13 1018.41 1018.64 1018.78 1018.90 1019.05 1019.15 1019.20 1019.36 1019.53 1019.64 1019.69 1019.78 1019.81 1019.88 1019.84 1019.74 1019.61 1019.53 1019.48 1019.35 1019.23 1019.12 1019.03 1018.97
1008.68 1006.96 1005.13 1004.05 1003.62 1004.40 1005.02 1005.54 1005.67 1006.02 1007.32 1007.73 1008.60 1010.08 1012.33 1014.32 1013.91 1014.19 1014.61 1014.66 1015.12 1015.93 1016.23 1017.47 1018.28 1018.49 1018.68 1018.90 1019.15 1019.28 1019.36 1019.43 1019.52 1019.65 1019.78 1019.88 1019.94 1020.04 1020.00 1019.99 1019.85 1019.70 1019.59 1019.48 1019.48 1019.34 1019.18 1019.07 1018.94
1007.17 1006.36 1004.58 1003.33 1003.29 1004.61 1005.18 1005.61 1006.19 1006.72 1007.68 1008.18 1008.76 1010.56 1013.82 1014.84 1014.16 1014.39 1014.72 1014.90 1015.33 1016.56 1016.66 1017.65 1018.48 1018.64 1018.74 1018.99 1019.24 1019.44 1019.53 1019.58 1019.68 1019.76 1019.80 1019.99 1020.00 1020.04 1020.01 1019.89 1019.80 1019.59 1019.51 1019.42 1019.36 1019.32 1019.13 1018.97 1018.86
1006.82 1005.28 1003.95 1003.48 1003.31 1004.02 1004.92 1005.79 1006.19 1006.62 1007.53 1008.73 1008.87 1010.13 1013.88 1014.36 1014.11 1014.61 1014.83 1015.27 1015.46 1016.98 1017.65 1018.15 1018.25 1018.59 1018.81 1019.06 1019.30 1019.51 1019.73 1019.79 1019.82 1019.90 1019.90 1019.92 1019.98 1019.95 1019.92 1019.81 1019.71 1019.59 1019.40 1019.26 1019.18 1019.13 1019.02 1018.73 1018.59
1006.70 1005.44 1003.86 1003.68 1003.20 1003.48 1005.41 1005.90 1006.45 1007.01 1008.28 1009.84 1009.53 1010.14 1012.51 1013.70 1014.45 1014.93 1015.51 1016.23 1016.07 1017.24 1017.95 1017.99 1018.36 1018.49 1018.40 1018.81 1019.23 1019.49 1019.76 1019.83 1019.88 1019.87 1019.96 1019.87 1019.71 1019.65 1019.79 1019.52 1019.60 1019.50 1019.34 1019.12 1019.01 1018.89 1018.74 1018.63 1018.42
1007.06 1005.49 1003.61 1002.95 1003.28 1003.39 1005.46 1005.97 1007.21 1008.07 1008.97 1009.58 1010.03 1009.69 1011.42 1013.54 1014.05 1014.67 1015.57 1016.35 1017.23 1017.85 1018.06 1018.11 1018.25 1018.59 1018.52 1018.41 1018.92 1019.38 1019.66 1019.78 1019.74 1019.68 1019.79 1019.53 1018.62 1018.74 1018.73 1019.52 1019.72 1019.57 1019.33 1019.23 1019.09 1018.90 1018.57 1018.15 1018.04
1006.43 1004.97 1003.53 1003.05 1003.36 1003.60 1005.16 1005.67 1007.33 1008.05 1008.78 1009.79 1010.34 1011.56 1012.63 1013.36 1013.53 1013.94 1014.54 1015.28 1016.07 1016.73 1017.05 1017.22 1017.58 1017.89 1017.96 1018.01 1018.33 1018.73 1018.47 1018.44 1018.63 1018.84 1019.06 1018.82 1018.77 1018.86 1019.07 1019.19 1019.52 1019.38 1019.24 1019.02 1018.97 1018.66 1018.20 1017.59 1016.70
1005.94 1004.57 1003.93 1003.75 1004.55 1004.86 1004.86 1005.84 1007.17 1007.66 1008.22 1009.20 1010.87 1012.17 1012.72 1013.14 1013.52 1013.77 1014.18 1014.96 1015.85 1016.29 1016.98 1017.17 1017.83 1018.03 1017.38 1017.43 1017.87 1018.00 1018.18 1018.40 1018.76 1019.09 1019.15 1018.90 1018.57 1018.38 1018.23 1018.03 1017.92 1018.12 1018.47 1017.72 1017.88 1017.62 1017.28 1017.32 1017.04
1005.67 1005.29 1004.62 1004.40 1005.29 1005.58 1005.30 1005.92 1007.12 1007.84 1008.63 1009.49 1011.27 1012.54 1012.72 1013.21 1013.37 1013.78 1014.70 1015.75 1016.32 1016.57 1017.06 1017.45 1017.61 1018.05 1017.73 1017.57 1017.75 1018.04 1017.97 1018.34 1018.44 1018.91 1019.20 1018.88 1018.39 1018.53 1018.49 1018.13 1018.28 1018.18 1018.11 1018.20 1017.87 1017.45 1017.90 1017.56 1017.38
1005.71 1004.79 1005.15 1005.43 1005.91 1006.10 1006.22 1006.54 1007.49 1009.24 1009.91 1010.83 1012.42 1013.09 1013.29 1013.51 1014.07 1014.83 1015.61 1016.23 1016.75 1016.94 1017.37 1017.53 1017.63 1017.84 1018.01 1018.01 1018.19 1018.29 1018.43 1018.54 1018.92 1019.05 1019.45 1018.88 1018.73 1018.94 1018.71 1018.82 1018.61 1018.62 1018.53 1018.30 1018.10 1017.95 1017.98 1017.53 1017.15
1005.20 1005.32 1005.57 1005.92 1005.85 1006.53 1006.81 1007.64 1008.44 1010.08 1010.92 1011.78 1013.10 1013.96 1014.40 1014.39 1015.01 1015.77 1016.36 1016.79 1017.07 1017.46 1017.81 1018.11 1018.10 1018.35 1018.12 1018.27 1018.51 1018.80 1019.08 1019.49 1019.42 1019.67 1019.93 1019.83 1019.51 1019.65 1019.31 1019.16 1019.07 1019.04 1019.03 1018.85 1018.68 1018.45 1018.36 1017.89 1017.49
1005.98 1005.73 1006.00 1006.06 1006.32 1006.45 1007.12 1007.92 1008.34 1009.73 1010.83 1011.85 1013.22 1014.67 1015.48 1015.79 1015.77 1016.09 1016.58 1017.15 1017.61 1018.02 1018.35 1018.54 1018.60 1018.65 1018.75 1018.90 1018.81 1019.14 1019.06 1019.33 1019.67 1020.19 1020.59 1020.52 1020.33 1020.28 1019.93 1019.65 1019.48 1019.65 1019.58 1019.31 1018.99 1018.68 1018.36 1017.88 1017.57
1005.66 1005.46 1004.69 1005.15 1006.28 1006.72 1007.24 1005.79 1007.56 1009.84 1010.47 1011.53 1013.04 1014.86 1015.85 1016.54 1016.42 1016.64 1017.30 1017.74 1018.15 1018.47 1018.71 1018.85 1018.69 1018.84 1019.11 1019.36 1019.18 1019.26 1019.73 1019.88 1020.16 1020.39 1020.76 1021.03 1021.03 1020.97 1020.49 1020.11 1020.26 1020.45 1020.02 1019.75 1019.47 1019.07 1018.72 1018.28 1018.12
1004.80 1003.88 1004.06 1004.32 1005.49 1005.93 1006.60 1005.50 1007.21 1009.26 1010.15 1011.11 1012.64 1014.37 1015.54 1016.41 1017.22 1017.66 1017.87 1018.17 1018.69 1018.86 1018.95 1019.19 1019.10 1019.07 1019.43 1019.72 1019.66 1019.87 1020.27 1020.29 1020.60 1020.75 1020.98 1021.46 1021.48 1021.37 1021.05 1021.01 1021.07 1020.83 1020.33 1020.29 1020.10 1019.61 1019.60 1018.97 1018.71
1003.43 1003.91 1003.54 1003.72 1004.57 1005.60 1005.64 1005.22 1007.19 1008.67 1009.50 1010.41 1011.70 1013.17 1014.72 1015.78 1016.59 1017.29 1017.83 1018.15 1018.81 1019.05 1019.17 1019.46 1019.48 1019.79 1019.90 1019.80 1019.88 1019.98 1020.47 1020.66 1020.98 1021.44 1021.79 1021.86 1021.78 1021.86 1021.35 1021.51 1021.76 1021.16 1021.00 1020.88 1020.84 1020.45 1020.17 1019.85 1019.34
1004.34 1003.91 1003.49 1003.47 1003.85 1004.96 1004.80 1004.90 1005.85 1007.95 1008.96 1009.56 1010.66 1012.02 1013.20 1014.40 1015.75 1017.02 1017.64 1018.23 1018.71 1019.16 1019.34 1019.24 1019.50 1019.94 1019.91 1019.66 1019.66 1019.81 1020.41 1021.21 1021.79 1022.30 1022.84 1022.67 1022.41 1022.41 1022.21 1021.67 1021.85 1021.85 1022.07 1021.94 1021.44 1020.67 1020.45 1020.00 1019.75
1004.89 1004.41 1003.97 1003.99 1004.18 1004.91 1004.33 1004.19 1004.63 1006.48 1007.68 1008.35 1009.49 1010.86 1012.20 1013.59 1015.09 1016.34 1017.22 1017.88 1018.28 1018.61 1018.96 1019.29 1019.41 1019.98 1019.85 1019.91 1020.17 1020.45 1021.23 1022.01 1022.46 1022.84 1023.39 1023.11 1022.74 1022.64 1022.71 1022.62 1022.37 1022.42 1022.54 1022.57 1022.05 1021.78 1020.46 1020.54 1020.61
1004.74 1004.38 1004.07 1003.97 1004.22 1004.84 1004.46 1003.55 1003.62 1004.42 1006.54 1007.58 1008.45 1009.60 1010.92 1012.22 1013.85 1015.25 1016.37 1017.18 1017.80 1018.30 1018.75 1019.08 1019.40 1019.73 1019.91 1020.26 1020.73 1021.16 1021.71 1021.96 1022.49 1022.76 1023.17 1023.33 1023.29 1023.30 1023.30 1023.67 1023.24 1022.72 1022.79 1023.03 1022.80 1022.53 1022.00 1020.93 1020.97
1004.02 1004.21 1004.47 1004.14 1004.03 1003.38 1003.67 1002.38 1002.12 1003.04 1004.59 1006.16 1007.03 1008.14 1009.26 1010.94 1012.72 1014.15 1015.59 1016.54 1017.24 1018.02 1018.73 1019.27 1019.64 1019.95 1020.40 1020.60 1020.59 1020.74 1020.61 1021.21 1022.09 1022.79 1023.40 1023.60 1023.73 1023.69 1023.81 1024.29 1024.03 1022.48 1023.57 1023.72 1023.69 1023.29 1022.55 1021.65 1021.27
1003.91 1003.87 1003.78 1003.86 1003.52 1003.39 1002.61 1002.47 1001.65 1001.75 1002.15 1003.59 1005.20 1006.17 1007.62 1009.41 1011.60 1013.34 1014.90 1015.97 1016.84 1017.90 1018.61 1019.40 1019.89 1020.23 1020.65 1020.82 1020.86 1020.95 1021.05 1022.07 1022.41 1023.01 1023.46 1023.84 1023.98 1024.07 1024.17 1024.10 1023.74 1023.88 1023.89 1024.49 1024.40 1023.91 1023.34 1022.72 1022.13
1003.98 1004.05 1004.12 1003.99 1003.42 1002.17 1002.17 1001.79 1001.05 1001.08 1001.73 1002.67 1003.25 1004.25 1006.27 1008.38 1010.87 1013.06 1014.70 1015.78 1016.81 1017.59 1018.60 1019.46 1020.09 1020.62 1021.02 1021.14 1021.39 1021.51 1021.85 1022.05 1022.29 1022.66 1022.90 1023.09 1023.55 1024.10 1024.53 1024.44 1024.45 1024.51 1024.45 1024.54 1024.39 1024.17 1024.02 1023.59 1023.27
1003.80 1003.71 1003.03 1002.53 1001.97 1000.96 1001.40 1000.86 1000.43 1001.16 1001.30 1002.33 1002.71 1003.53 1005.18 1008.04 1010.67 1012.84 1014.51 1015.54 1016.45 1017.32 1018.30 1019.18 1020.01 1020.67 1021.19 1021.42 1021.81 1022.12 1022.25 1022.58 1023.01 1022.98 1022.63 1023.00 1023.35 1023.95 1024.86 1024.76 1024.72 1024.71 1024.97 1024.91 1024.59 1024.56 1024.41 1024.23 1023.94
1003.44 1003.23 1002.51 1001.32 1000.73 999.95 999.88 999.37 1000.33 1001.54 1003.22 1004.26 1004.85 1005.40 1006.03 1008.42 1010.71 1012.78 1014.53 1015.32 1016.14 1017.20 1018.14 1019.06 1019.95 1020.67 1021.30 1021.66 1022.10 1022.51 1022.67 1022.36 1022.95 1023.24 1023.20 1023.15 1023.51 1024.16 1025.04 1025.13 1025.07 1025.17 1025.28 1025.18 1024.84 1024.51 1024.31 1024.53 1024.22
1003.79 1003.49 1003.25 1002.63 1002.11 1000.98 1000.17 1000.03 1001.91 1002.95 1004.12 1005.21 1005.52 1005.88 1007.51 1009.38 1011.05 1012.96 1014.53 1015.59 1016.36 1017.42 1018.37 1019.13 1019.91 1020.67 1021.33 1021.85 1022.26 1022.67 1022.92 1023.02 1023.45 1024.03 1024.00 1023.58 1024.03 1024.64 1025.18 1025.36 1025.35 1025.34 1025.46 1025.56 1025.17 1024.97 1024.76 1024.53 1024.41
1004.90 1004.40 1004.07 1003.22 1002.57 1001.34 1000.40 1000.60 1000.71 1002.97 1004.40 1005.92 1006.88 1007.64 1008.88 1010.48 1012.04 1013.56 1014.94 1015.86 1016.75 1017.85 1018.80 1019.45 1020.18 1020.78 1021.46 1021.97 1022.43 1022.57 1023.17 1023.74 1024.21 1024.37 1024.43 1024.25 1024.64 1024.96 1025.28 1025.71 1025.84 1025.47 1025.46 1025.49 1025.01 1024.85 1025.19 1024.94 1024.73
1005.00 1005.66 1004.93 1004.61 1003.89 1002.49 1001.79 1001.92 1003.34 1004.80 1005.78 1006.55 1007.64 1008.72 1009.84 1011.15 1012.78 1014.22 1015.53 1016.43 1017.21 1018.18 1018.91 1019.79 1020.34 1021.02 1021.55 1022.03 1022.60 1022.97 1023.46 1024.19 1024.69 1025.12 1025.01 1024.98 1025.03 1025.06 1025.26 1025.32 1025.47 1025.71 1025.60 1025.55 1025.47 1025.22 1025.32 1025.09 1025.20
1006.68 1006.42 1006.30 1005.57 1004.88 1004.28 1003.52 1003.60 1005.94 1006.91 1007.45 1007.91 1008.51 1009.32 1010.55 1011.82 1013.39 1014.63 1016.10 1016.99 1017.70 1018.46 1019.31 1020.16 1020.59 1021.20 1022.16 1022.99 1023.63 1023.98 1024.27 1024.75 1024.93 1025.39 1025.53 1025.39 1025.26 1025.22 1025.59 1025.39 1025.49 1025.71 1025.84 1025.85 1025.59 1025.52 1025.66 1025.48 1025.42
Thickness
5815 5821 5826 5824 5810 5830 5810 5806 5819 5809 5811 5821 5824 5810 5801 5799 5787 5773 5790 5791 5791 5788 5774 5766 5760 5758 5757 5755 5751 5748 5747 5745 5744 5743 5742 5741 5740 5739 5738 5738 5739 5738 5738 5737 5737 5737 5737 5737 5737
5821 5823 5825 5827 5813 5810 5809 5815 5804 5812 5816 5820 5815 5809 5801 5782 5789 5775 5781 5787 5787 5781 5772 5767 5759 5756 5754 5752 5749 5747 5746 5743 5742 5741 5740 5739 5738 5737 5736 5736 5736 5736 5736 5737 5737 5738 5738 5738 5737
5820 5823 5817 5816 5815 5812 5814 5813 5812 5814 5819 5816 5805 5813 5799 5777 5782 5785 5791 5787 5785 5776 5769 5762 5756 5753 5751 5749 5747 5745 5744 5742 5740 5739 5738 5737 5736 5734 5733 5733 5733 5734 5736 5736 5737 5738 5738 5738 5738
5820 5822 5823 5807 5806 5815 5818 5824 5823 5817 5819 5820 5810 5788 5790 5791 5788 5788 5786 5785 5781 5776 5772 5757 5754 5751 5748 5747 5744 5742 5741 5741 5739 5737 5735 5735 5734 5733 5732 5732 5732 5735 5735 5735 5736 5738 5738 5738 5738
5821 5819 5804 5806 5811 5815 5820 5824 5828 5819 5810 5812 5811 5786 5776 5773 5786 5785 5783 5782 5777 5771 5768 5758 5752 5749 5748 5745 5742 5740 5738 5737 5737 5735 5734 5733 5733 5732 5732 5731 5732 5734 5736 5736 5735 5736 5737 5737 5738
5806 5815 5796 5801 5813 5813 5820 5827 5821 5814 5810 5809 5804 5789 5760 5770 5779 5780 5780 5778 5774 5765 5763 5755 5749 5747 5746 5744 5741 5738 5736 5736 5735 5734 5734 5731 5732 5732 5732 5733 5733 5734 5735 5735 5735 5735 5737 5738 5739
5797 5805 5801 5807 5811 5811 5816 5828 5816 5814 5809 5796 5810 5786 5761 5766 5779 5779 5778 5775 5772 5760 5755 5751 5749 5746 5745 5742 5739 5737 5734 5734 5734 5733 5732 5732 5731 5731 5732 5734 5734 5734 5736 5737 5737 5737 5738 5741 5742
5805 5805 5801 5807 5809 5810 5816 5820 5825 5815 5800 5803 5808 5780 5763 5773 5777 5776 5771 5765 5767 5757 5751 5750 5746 5744 5745 5742 5738 5735 5733 5732 5732 5732 5730 5732 5731 5732 5731 5734 5734 5735 5736 5738 5738 5739 5741 5742 5743
5808 5786 5793 5809 5810 5817 5818 5810 5815 5814 5797 5798 5800 5804 5794 5781 5780 5772 5765 5760 5754 5750 5749 5746 5744 5742 5742 5742 5738 5735 5733 5731 5732 5732 5731 5733 5737 5735 5736 5733 5732 5734 5736 5737 5737 5739 5742 5745 5746
5789 5786 5801 5829 5828 5821 5816 5816 5804 5798 5793 5787 5790 5789 5785 5781 5779 5773 5769 5762 5759 5754 5754 5751 5747 5745 5744 5743 5741 5737 5738 5739 5738 5736 5734 5734 5734 5733 5731 5732 5731 5733 5735 5737 5737 5739 5742 5747 5752
5792 5788 5813 5817 5816 5817 5817 5811 5811 5801 5791 5795 5779 5774 5779 5778 5775 5774 5771 5766 5759 5757 5752 5751 5744 5742 5746 5746 5743 5741 5739 5737 5735 5732 5731 5732 5734 5735 5736 5737 5738 5738 5738 5743 5742 5744 5746 5745 5747
5778 5795 5803 5810 5808 5805 5807 5814 5801 5803 5797 5803 5788 5779 5779 5774 5775 5771 5763 5756 5753 5752 5749 5746 5744 5740 5741 5742 5742 5739 5739 5736 5734 5731 5729 5730 5734 5733 5733 5735 5734 5736 5737 5737 5739 5742 5739 5742 5743
5778 5794 5796 5799 5798 5798 5804 5798 5794 5782 5792 5792 5778 5773 5771 5771 5767 5762 5757 5752 5748 5745 5744 5743 5741 5739 5737 5737 5734 5734 5732 5731 5728 5727 5725 5729 5729 5728 5730 5729 5730 5731 5732 5733 5735 5736 5736 5739 5742
5791 5789 5788 5789 5793 5790 5785 5779 5782 5773 5780 5776 5766 5760 5760 5762 5756 5749 5745 5742 5740 5737 5735 5735 5735 5732 5734 5733 5732 5728 5725 5721 5722 5721 5719 5721 5722 5721 5723 5725 5726 5726 5726 5727 5728 5730 5731 5734 5736
5779 5769 5775 5778 5781 5780 5784 5761 5766 5774 5774 5768 5760 5748 5743 5744 5748 5744 5741 5737 5734 5731 5729 5727 5726 5726 5726 5725 5726 5722 5722 5720 5718 5714 5712 5713 5714 5714 5716 5718 5720 5719 5719 5720 5723 5725 5727 5730 5732
5764 5769 5762 5779 5773 5774 5771 5773 5775 5767 5767 5761 5755 5740 5733 5730 5737 5738 5732 5729 5726 5724 5722 5721 5723 5722 5720 5719 5720 5718 5714 5712 5711 5709 5707 5704 5704 5706 5708 5710 5711 5710 5712 5714 5715 5719 5721 5724 5724
5762 5755 5760 5767 5777 5771 5765 5777 5767 5765 5761 5756 5750 5737 5730 5727 5722 5722 5723 5720 5717 5717 5718 5716 5717 5718 5714 5712 5711 5709 5707 5705 5703 5701 5700 5697 5697 5698 5700 5700 5700 5702 5705 5706 5707 5710 5709 5713 5714
5751 5748 5762 5760 5770 5763 5761 5776 5759 5758 5757 5753 5750 5743 5730 5724 5719 5720 5717 5717 5712 5710 5711 5709 5709 5707 5706 5706 5705 5703 5699 5698 5695 5691 5689 5689 5690 5689 5692 5690 5689 5692 5694 5696 5696 5698 5699 5701 5703
5753 5751 5753 5767 5776 5758 5759 5764 5760 5750 5748 5749 5747 5741 5737 5731 5725 5715 5712 5708 5705 5703 5702 5704 5703 5700 5701 5703 5701 5700 5694 5688 5684 5679 5675 5676 5679 5678 5679 5681 5680 5679 5678 5679 5683 5690 5690 5693 5693
5739 5736 5740 5754 5762 5750 5757 5757 5771 5751 5748 5751 5744 5737 5732 5727 5719 5713 5708 5704 5702 5700 5699 5698 5698 5693 5695 5695 5692 5689 5682 5675 5671 5668 5662 5664 5666 5668 5666 5666 5667 5666 5665 5665 5670 5672 5681 5679 5677
5731 5728 5734 5736 5742 5743 5742 5743 5757 5761 5751 5747 5747 5743 5736 5730 5720 5712 5706 5701 5699 5696 5693 5691 5690 5688 5686 5683 5678 5674 5669 5666 5662 5660 5655 5653 5653 5654 5653 5650 5652 5655 5651 5651 5654 5656 5659 5667 5665
5718 5738 5732 5731 5725 5717 5743 5716 5752 5757 5747 5740 5744 5743 5741 5732 5722 5714 5703 5698 5694 5690 5685 5681 5679 5676 5672 5671 5670 5668 5669 5663 5654 5648 5641 5640 5640 5640 5639 5635 5635 5643 5633 5636 5636 5638 5644 5651 5652
5721 5738 5731 5728 5723 5722 5730 5714 5739 5764 5751 5751 5750 5751 5746 5736 5722 5711 5700 5694 5690 5682 5676 5671 5668 5666 5662 5660 5659 5657 5655 5645 5642 5636 5631 5626 5627 5626 5625 5625 5626 5624 5623 5619 5619 5623 5627 5632 5636
5734 5721 5719 5718 5717 5699 5720 5720 5727 5744 5744 5749 5761 5760 5747 5734 5719 5703 5694 5687 5680 5675 5667 5660 5655 5651 5648 5647 5644 5643 5639 5636 5633 5629 5626 5624 5619 5613 5610 5610 5609 5608 5608 5607 5608 5610 5611 5613 5616
5721 5708 5692 5692 5698 5696 5732 5721 5731 5746 5759 5747 5753 5752 5748 5727 5708 5693 5682 5676 5671 5665 5659 5652 5645 5640 5636 5634 5630 5627 5625 5622 5616 5615 5617 5613 5610 5603 5595 5595 5595 5594 5592 5592 5594 5595 5595 5597 5599
5710 5711 5699 5683 5702 5722 5751 5724 5729 5741 5726 5722 5724 5728 5730 5712 5698 5683 5672 5668 5663 5656 5650 5643 5635 5629 5624 5621 5617 5613 5611 5613 5607 5603 5602 5600 5596 5590 5582 5580 5580 5579 5577 5577 5580 5582 5584 5582 5584
5706 5689 5717 5693 5705 5703 5725 5742 5718 5715 5705 5701 5708 5714 5703 5692 5683 5671 5662 5656 5651 5644 5637 5631 5624 5617 5612 5608 5605 5601 5598 5597 5592 5585 5584 5586 5580 5574 5569 5567 5566 5565 5564 5562 5565 5566 5568 5569 5568
5690 5707 5677 5695 5665 5673 5709 5718 5728 5696 5691 5683 5682 5683 5679 5672 5664 5655 5647 5641 5636 5629 5621 5615 5609 5604 5599 5595 5592 5590 5584 5579 5574 5571 5569 5568 5563 5559 5555 5551 5546 5549 5550 5549 5552 5553 5549 5549 5551
5680 5661 5677 5681 5680 5672 5677 5704 5695 5679 5674 5670 5669 5666 5662 5655 5645 5637 5630 5626 5622 5615 5609 5601 5596 5590 5585 5582 5576 5573 5568 5561 5555 5551 5550 5549 5547 5546 5542 5541 5538 5535 5535 5534 5534 5535 5534 5535 5532
5663 5661 5665 5658 5657 5675 5679 5680 5663 5656 5653 5652 5652 5651 5647 5638 5628 5622 5613 5608 5605 5600 5594 5587 5582 5576 5567 5559 5553 5550 5546 5540 5538 5532 5528 5529 5530 5528 5524 5526 5525 5521 5519 5516 5517 5517 5516 5517 5515